| time (UTC) | temp F | wind direction | speed MPH | gust MPH | rain 1hr in | rain 24hr in | rain mn in | humidity % | barometer mb |
| 20260505065742 | 35 | 304 | 0.0 | 2.0 | 0.00 | 0.00 | 0.00 | 60 | 1014.8 |
| 20260505064746 | 36 | 304 | 0.0 | 3.0 | 0.00 | 0.00 | 0.00 | 60 | 1014.8 |
| 20260505063745 | 36 | 304 | 2.0 | 6.0 | 0.00 | 0.00 | 0.00 | 59 | 1014.8 |
| 20260505062753 | 36 | 306 | 5.0 | 6.0 | 0.00 | 0.00 | 0.00 | 59 | 1015.5 |
| 20260505061754 | 36 | 317 | 3.0 | 6.0 | 0.00 | 0.00 | 0.00 | 59 | 1015.4 |
| 20260505060756 | 34 | 323 | 3.0 | 5.0 | 0.00 | 0.00 | 0.00 | 61 | 1015.4 |
| 20260505055756 | 33 | 323 | 4.0 | 5.0 | 0.00 | 0.00 | 0.00 | 62 | 1015.3 |
| 20260505054744 | 33 | 323 | 3.0 | 5.0 | 0.00 | 0.00 | 0.00 | 61 | 1015.2 |
| 20260505053745 | 34 | 323 | 3.0 | 4.0 | 0.00 | 0.00 | 0.00 | 63 | 1015.1 |
| 20260505052745 | 34 | 323 | 4.0 | 4.0 | 0.00 | 0.00 | 0.00 | 58 | 1015.0 |
| 20260505051748 | 34 | 323 | 3.0 | 4.0 | 0.00 | 0.00 | 0.00 | 58 | 1015.0 |
| 20260505050752 | 35 | 323 | 3.0 | 4.0 | 0.00 | 0.00 | 0.00 | 58 | 1014.9 |
| 20260505041743 | 39 | 300 | 3.0 | 7.0 | 0.00 | 0.00 | 0.00 | 50 | 1014.5 |
| 20260505040807 | 40 | 300 | 3.0 | 10.0 | 0.00 | 0.00 | 0.00 | 48 | 1014.6 |
| 20260505035807 | 41 | 294 | 8.0 | 12.0 | 0.00 | 0.00 | 0.00 | 47 | 1014.4 |
| 20260505034747 | 41 | 311 | 6.0 | 12.0 | 0.00 | 0.00 | 0.00 | 46 | 1014.3 |
| 20260505033746 | 42 | 312 | 9.0 | 15.0 | 0.00 | 0.00 | 0.00 | 45 | 1014.1 |
| 20260505032754 | 42 | 299 | 16.0 | 16.0 | 0.00 | 0.00 | 0.00 | 44 | 1014.1 |
| 20260505031756 | 42 | 295 | 16.0 | 16.0 | 0.00 | 0.00 | 0.00 | 44 | 1013.9 |
| 20260505030758 | 42 | 304 | 11.0 | 20.0 | 0.00 | 0.00 | 0.00 | 43 | 1013.8 |
| 20260505025757 | 42 | 284 | 9.0 | 16.0 | 0.00 | 0.00 | 0.00 | 44 | 1013.7 |
| 20260505024743 | 42 | 314 | 13.0 | 18.0 | 0.00 | 0.00 | 0.00 | 43 | 1013.5 |
| 20260505023748 | 43 | 306 | 17.0 | 20.0 | 0.00 | 0.00 | 0.00 | 43 | 1013.4 |
| 20260505022809 | 43 | 309 | 10.0 | 19.0 | 0.00 | 0.00 | 0.00 | 44 | 1013.2 |
| 20260505021808 | 43 | 297 | 11.0 | 18.0 | 0.00 | 0.00 | 0.00 | 44 | 1012.9 |
| 20260505020746 | 43 | 311 | 14.0 | 22.0 | 0.00 | 0.00 | 0.00 | 44 | 1012.8 |
| 20260505015750 | 43 | 315 | 16.0 | 24.0 | 0.00 | 0.00 | 0.00 | 43 | 1012.7 |
| 20260505014749 | 43 | 310 | 12.0 | 22.0 | 0.00 | 0.00 | 0.00 | 45 | 1012.6 |
| 20260505013750 | 43 | 306 | 17.0 | 25.0 | 0.00 | 0.00 | 0.00 | 45 | 1012.4 |
| 20260505012751 | 44 | 300 | 15.0 | 28.0 | 0.00 | 0.00 | 0.00 | 44 | 1012.4 |
| 20260505011809 | 44 | 308 | 21.0 | 25.0 | 0.00 | 0.00 | 0.00 | 44 | 1012.2 |
| 20260505010756 | 45 | 313 | 18.0 | 26.0 | 0.00 | 0.00 | 0.00 | 42 | 1012.0 |
| 20260505005755 | 45 | 296 | 18.0 | 26.0 | 0.00 | 0.00 | 0.00 | 43 | 1013.0 |
| 20260505004753 | 46 | 304 | 20.0 | 28.0 | 0.00 | 0.00 | 0.00 | 44 | 1012.8 |
| 20260505003755 | 45 | 316 | 20.0 | 26.0 | 0.00 | 0.00 | 0.00 | 45 | 1012.9 |
| 20260505002753 | 45 | 304 | 20.0 | 30.0 | 0.00 | 0.00 | 0.00 | 42 | 1013.0 |
| 20260505001740 | 46 | 298 | 18.0 | 26.0 | 0.00 | 0.00 | 0.00 | 44 | 1012.7 |
| 20260505000743 | 46 | 315 | 10.0 | 28.0 | 0.00 | 0.00 | 0.00 | 47 | 1012.6 |
| 20260504235744 | 46 | 323 | 26.0 | 26.0 | 0.00 | 0.00 | 0.00 | 45 | 1012.7 |
| 20260504234746 | 46 | 304 | 23.0 | 29.0 | 0.00 | 0.00 | 0.00 | 45 | 1012.5 |
| 20260504233805 | 46 | 300 | 28.0 | 28.0 | 0.00 | 0.00 | 0.00 | 46 | 1012.5 |
| 20260504232752 | 46 | 277 | 23.0 | 28.0 | 0.00 | 0.00 | 0.00 | 46 | 1012.3 |
| 20260504231753 | 47 | 298 | 27.0 | 29.0 | 0.00 | 0.00 | 0.00 | 45 | 1012.2 |
| 20260504230753 | 47 | 306 | 21.0 | 28.0 | 0.00 | 0.00 | 0.00 | 46 | 1012.2 |
| 20260504225815 | 47 | 286 | 22.0 | 32.0 | 0.00 | 0.00 | 0.00 | 44 | 1012.0 |
| 20260504224755 | 48 | 309 | 24.0 | 32.0 | 0.00 | 0.00 | 0.00 | 43 | 1011.9 |
| 20260504223759 | 48 | 288 | 26.0 | 32.0 | 0.00 | 0.00 | 0.00 | 43 | 1012.0 |
| 20260504222759 | 49 | 294 | 19.0 | 40.0 | 0.00 | 0.00 | 0.00 | 44 | 1011.7 |
| 20260504221759 | 48 | 304 | 23.0 | 33.0 | 0.00 | 0.00 | 0.00 | 45 | 1011.9 |
| 20260504220740 | 49 | 295 | 23.0 | 35.0 | 0.00 | 0.00 | 0.00 | 42 | 1011.7 |
| 20260504215745 | 47 | 282 | 25.0 | 34.0 | 0.00 | 0.00 | 0.00 | 45 | 1011.4 |
| 20260504214745 | 49 | 293 | 27.0 | 36.0 | 0.00 | 0.00 | 0.00 | 42 | 1011.5 |
| 20260504213748 | 48 | 304 | 23.0 | 32.0 | 0.00 | 0.00 | 0.00 | 43 | 1011.5 |
| 20260504212749 | 48 | 294 | 23.0 | 32.0 | 0.00 | 0.00 | 0.00 | 43 | 1011.4 |
| 20260504211754 | 48 | 290 | 19.0 | 33.0 | 0.00 | 0.00 | 0.00 | 42 | 1011.4 |
| 20260504210755 | 49 | 315 | 24.0 | 33.0 | 0.00 | 0.00 | 0.00 | 42 | 1011.5 |
| 20260504205755 | 49 | 290 | 26.0 | 33.0 | 0.00 | 0.00 | 0.00 | 41 | 1011.5 |
| 20260504204819 | 49 | 298 | 15.0 | 36.0 | 0.00 | 0.00 | 0.00 | 41 | 1011.4 |
| 20260504203759 | 50 | 317 | 22.0 | 33.0 | 0.00 | 0.00 | 0.00 | 40 | 1011.4 |
| 20260504202742 | 49 | 321 | 18.0 | 32.0 | 0.00 | 0.00 | 0.00 | 40 | 1011.5 |
| 20260504201743 | 50 | 305 | 21.0 | 32.0 | 0.00 | 0.00 | 0.00 | 40 | 1011.4 |
| 20260504200744 | 51 | 275 | 29.0 | 32.0 | 0.00 | 0.00 | 0.00 | 40 | 1011.2 |
| 20260504195745 | 50 | 302 | 20.0 | 33.0 | 0.00 | 0.00 | 0.00 | 40 | 1011.2 |
| 20260504194750 | 49 | 317 | 26.0 | 32.0 | 0.00 | 0.00 | 0.00 | 39 | 1011.2 |
| 20260504193811 | 49 | 292 | 29.0 | 33.0 | 0.00 | 0.00 | 0.00 | 41 | 1012.2 |
| 20260504192751 | 50 | 296 | 26.0 | 38.0 | 0.00 | 0.00 | 0.00 | 41 | 1012.2 |
| 20260504191757 | 51 | 313 | 23.0 | 35.0 | 0.00 | 0.00 | 0.00 | 41 | 1011.9 |
| 20260504190817 | 49 | 296 | 21.0 | 32.0 | 0.00 | 0.00 | 0.00 | 42 | 1011.9 |
| 20260504185759 | 49 | 300 | 28.0 | 32.0 | 0.00 | 0.00 | 0.00 | 41 | 1012.0 |
| 20260504184740 | 50 | 288 | 22.0 | 39.0 | 0.00 | 0.00 | 0.00 | 41 | 1011.8 |
| 20260504183803 | 50 | 294 | 29.0 | 31.0 | 0.00 | 0.00 | 0.00 | 40 | 1011.7 |
| 20260504182743 | 50 | 279 | 24.0 | 39.0 | 0.00 | 0.00 | 0.00 | 39 | 1011.6 |
| 20260504181751 | 49 | 284 | 24.0 | 33.0 | 0.00 | 0.00 | 0.00 | 40 | 1011.7 |
| 20260504180754 | 51 | 294 | 17.0 | 32.0 | 0.00 | 0.00 | 0.00 | 40 | 1011.6 |
| 20260504175817 | 50 | 298 | 20.0 | 34.0 | 0.00 | 0.00 | 0.00 | 39 | 1011.7 |
| 20260504174817 | 49 | 300 | 18.0 | 32.0 | 0.00 | 0.00 | 0.00 | 42 | 1011.8 |
| 20260504173756 | 49 | 321 | 27.0 | 33.0 | 0.00 | 0.00 | 0.00 | 42 | 1011.7 |
| 20260504172742 | 49 | 294 | 31.0 | 33.0 | 0.00 | 0.00 | 0.00 | 41 | 1011.7 |
| 20260504171804 | 49 | 283 | 23.0 | 34.0 | 0.00 | 0.00 | 0.00 | 41 | 1011.8 |
| 20260504170745 | 50 | 289 | 23.0 | 32.0 | 0.00 | 0.00 | 0.00 | 40 | 1011.6 |
| 20260504150753 | 47 | 288 | 16.0 | 29.0 | 0.00 | 0.00 | 0.00 | 46 | 1011.8 |
| 20260504140750 | 45 | 285 | 19.0 | 31.0 | 0.00 | 0.00 | 0.00 | 51 | 1011.9 |
| 20260504130744 | 43 | 289 | 18.0 | 18.0 | 0.00 | 0.00 | 0.00 | 54 | 1011.6 |
| 20260504081758 | 53 | 290 | 15.0 | 29.0 | 0.00 | 0.00 | 0.00 | 44 | 1008.5 |
| 20260504080820 | 53 | 292 | 17.0 | 27.0 | 0.00 | 0.00 | 0.00 | 43 | 1008.4 |